Location: Wapato
(46.4478°N, 120.4212°W)
Time: 22:53:03
(UTC+00:00)

Vanguard 1 Rocket - Pass Details

Date: 16 May 2026
Orbit: 656 x 4211 km, 34.3° (Epoch: 7 June)

Event Time Altitude Azimuth Distance (km) Brightness Sun altitude
Rises 05:02:50 0° 276° (W) 6,350 12.5 -13.4°
Reaches altitude 10° 05:07:11 10° 267° (W) 5,790 12.0 -13.9°
Maximum altitude 05:22:51 32° 214° (SSW) 5,345 11.1 -15.7°
Enters shadow 05:40:00 15° 167° (SSE) 6,982 11.3 -17.4°
